Terminal Aerodrome Forecast
Issued by NWS

Home | Current Version | Previous Version | Text Only | Print | Product List | Glossary On
Versions: 1 2 3 4 5 6 7 8 9 10 11 12 13 14 15 16 17 18 19 20 21 22 23 24 25 26 27 28 29 30 31 32
000
FTUS44 KOUN 041825 AAA
TAFGAG
TAF AMD
KGAG 041825Z 0418/0518 02015G25KT P6SM BKN020 OVC040
      TEMPO 0419/0422 3SM -SN BR OVC008
     FM050100 01009KT P6SM SCT015 OVC050
     FM050800 VRB05KT P6SM SCT050 BKN150=

USA.gov is the U.S. government's official web portal to all federal, state and local government web resources and services.